Terminal Aerodrome Forecast
Issued by NWS

Home | Current Version | Previous Version | Graphics & Text | Print | Product List | Glossary On
Versions: 1 2 3 4 5 6 7 8 9 10 11 12 13 14 15 16 17 18 19 20 21
158
FTUS43 KBIS 191727
TAFMOT
TAF
KMOT 191727Z 1918/2018 VRB03KT P6SM OVC014
     FM191900 25004KT P6SM SCT020
     FM192100 16004KT P6SM SCT020
     FM200500 15004KT 1SM BR BKN010
     FM201400 13004KT 2SM BR BKN020
     FM201600 13005KT P6SM BKN050=

USA.gov is the U.S. government's official web portal to all federal, state and local government web resources and services.